TOURFACTS.DK  
Stats and Facts from Tour de France.

Tour de France 2017 starts in 2 days
  Riders   Stages   Teams   Summits   Yearly  


 
Search by year

 After:  2016 - Stage 21:
  14626 starters.
  5126 different riders.
  634 teams.
  2211 stages.
  454 restdays.
  436049.60 km.
  5622 abandonnees.


Top 3
Christopher Froome89:04:48
Romain Bardet89:08:53
Nairo Quintana89:09:09
Rafal Majka209 pt.
Thomas De Gendt130 pt.
Jarlinson Pantano ..121 pt.
Peter Sagan470 pt.
Marcel Kittel228 pt.
Michael Matthews199 pt.
Adam Yates89:09:30
Louis Meintjes89:11:46
Emanuel Buchmann89:52:28
Facts from Tour de France 2015
  |   Stages.  |   Stage winners.  |   Days in yellow  |   Average speed.  |   Route.  |   Teams.  |   All riders.  |   Rookies.  |   Withdrawls.  |  

  |   GC.  |   Polka  |   Green  |   White  |   Summits. (In tour)  |   Summits. (Points)  |   Miscellaneous.  |  

Stage 5 on 08 - 07 - 2015
         Owning:    Tony Martin      Joaquim Rodriguez      André Greipel      Peter Sagan  

Pick a stage:  1 2 3 4 5 6 7 8 10 11 12 13 14 15 16 17 18 19 20 21
  ArrasAmiens Métropole | Dist: 189.50 km.

Average speed for all riders in stage:  39,875 km./hr.
    Place:Name:Team:Time:Km/h:
DEUAndré GreipelBELLotto Soudal04:39:00  +  00:00:00=40,753 
SVKPeter SaganRUSTinkoff Saxo04:39:00  +  00:00:00=40,753 
IMNMark CavendishBELEtixx - Quick Step04:39:00  +  00:00:00=40,753 
4 NORAlexander KristoffRUSTeam Katusha04:39:00  +  00:00:00=40,753 
5 NOREdvald Boasson HagenZAFMTN - Qhubeka P/B Samsung04:39:00  +  00:00:00=40,753 
6 DEUJohn DegenkolbDEUTeam Giant Alpecin04:39:00  +  00:00:00=40,753 
7 FRAArnaud DémareFRAFDJ04:39:00  +  00:00:00=40,753 
8 FRABryan CoquardFRATeam Europcar04:39:00  +  00:00:00=40,753 
9 ITADavide CimolaiITALampre-Merida04:39:00  +  00:00:00=40,753 
10 BELGreg Van AvermaetUSABMC Racing Team04:39:00  +  00:00:00=40,753 
11 FRAGeoffrey SoupeFRACofidis – Solutions Crédits04:39:00  +  00:00:00=40,753 
12 AUSZakkari DempsterDEUBora-Argon 1804:39:00  +  00:00:00=40,753 
13 ZAFReinardt Janse Van RensburgZAFMTN - Qhubeka P/B Samsung04:39:00  +  00:00:00=40,753 
14 COLJarlinson Pantano GomezCHEIAM Cycling04:39:00  +  00:00:00=40,753 
15 BELSep VanmarckeNLDTeam Lotto NL - Jumbo04:39:00  +  00:00:00=40,753 
16 BELJan BakelantsFRAAg2r La Mondiale04:39:00  +  00:00:00=40,753 
17 USRTanel KangertKAZAstana Pro Team04:39:00  +  00:00:00=40,753 
18 AUTMatthias BrändleCHEIAM Cycling04:39:00  +  00:00:00=40,753 
19 ITAVincenzo NibaliKAZAstana Pro Team04:39:00  +  00:00:00=40,753 
20 ITAMichele ScarponiKAZAstana Pro Team04:39:00  +  00:00:00=40,753 
21 FRASylvain ChavanelCHEIAM Cycling04:39:00  +  00:00:00=40,753 
22 DEUTony MartinBELEtixx - Quick Step04:39:00  +  00:00:00=40,753 
23 DEUPaul VossDEUBora-Argon 1804:39:00  +  00:00:00=40,753 
24 WALGeraint ThomasGBRSky Procycling04:39:00  +  00:00:00=40,753 
25 FRAWarren BarguilDEUTeam Giant Alpecin04:39:00  +  00:00:00=40,753 
26 SVNKristjan KorenUSATeam Cannondale - Garmin04:39:00  +  00:00:00=40,753 
27 ESPAlejandro ValverdeESPMovistar Team04:39:00  +  00:00:00=40,753 
28 KENChristopher FroomeGBRSky Procycling04:39:00  +  00:00:00=40,753 
29 NLDRobert GesinkNLDTeam Lotto NL - Jumbo04:39:00  +  00:00:00=40,753 
30 CHEMichael SchärUSABMC Racing Team04:39:00  +  00:00:00=40,753 
31 ESPSamuel SanchezUSABMC Racing Team04:39:00  +  00:00:00=40,753 
32 USATejay Van GarderenUSABMC Racing Team04:39:00  +  00:00:00=40,753 
33 ARGEduardo SepulvedaFRABretagne - Séché Environnement04:39:00  +  00:00:00=40,753 
34 COLNairo QuintanaESPMovistar Team04:39:00  +  00:00:00=40,753 
35 FRATony GallopinBELLotto Soudal04:39:00  +  00:00:00=40,753 
36 PRTRui CostaITALampre-Merida04:39:00  +  00:00:00=40,753 
37 USAAndrew TalanskyUSATeam Cannondale - Garmin04:39:00  +  00:00:00=40,753 
38 AUSMark RenshawBELEtixx - Quick Step04:39:00  +  00:00:00=40,753 
39 FRARomain BardetFRAAg2r La Mondiale04:39:00  +  00:00:00=40,753 
40 ESPAlberto ContadorRUSTinkoff Saxo04:39:00  +  00:00:00=40,753 
41 FRAMickaël CherelFRAAg2r La Mondiale04:39:00  +  00:00:00=40,753 
42 FRAJean-Christophe PeraudFRAAg2r La Mondiale04:39:00  +  00:00:00=40,753 
43 ESPJoaquim RodriguezRUSTeam Katusha04:39:00  +  00:00:00=40,753 
44 CZERoman KreuzigerRUSTinkoff Saxo04:39:00  +  00:00:00=40,753 
45 DEUDominik NerzDEUBora-Argon 1804:39:00  +  00:00:00=40,753 
46 ERIDaniel TeklehaimanotZAFMTN - Qhubeka P/B Samsung04:39:00  +  00:00:00=40,753 
47 ESPMarkel IrizarUSATrek Factory Racing04:39:00  +  00:00:00=40,753 
48 COLRigoberto UranBELEtixx - Quick Step04:39:00  +  00:00:00=40,753 
49 CHEJakob FuglsangKAZAstana Pro Team04:39:00  +  00:00:00=40,753 
50 ESPAlberto LosadaRUSTeam Katusha04:39:00  +  00:00:00=40,753 
51 CHEMathias FrankCHEIAM Cycling04:39:00  +  00:00:00=40,753 
52 NLDBauke MollemaUSATrek Factory Racing04:39:00  +  00:00:00=40,753 
53 ZAFJacques Janse Van RensburgZAFMTN - Qhubeka P/B Samsung04:39:00  +  00:00:00=40,753 
54 FRAChristophe LaporteFRACofidis – Solutions Crédits04:39:00  +  00:00:00=40,753 
55 CHEGregory RastUSATrek Factory Racing04:39:00  +  00:00:00=40,753 
56 CZEZdenek StybarBELEtixx - Quick Step04:39:00  +  00:00:00=40,753 
57 FRAThibaut PinotFRAFDJ04:39:00  +  00:00:00=40,753 
58 FRACyril GautierFRATeam Europcar04:39:00  +  00:00:00=40,753 
59 FRAAlexis VuillermozFRAAg2r La Mondiale04:39:00  +  00:00:00=40,753 
60 ENGDaniel MartinUSATeam Cannondale - Garmin04:39:00  +  00:00:00=40,753 
61 FRABenoit VaugrenardFRAFDJ04:39:00  +  00:00:00=40,753 
62 NLDJos Van EmdenNLDTeam Lotto NL - Jumbo04:39:00  +  00:00:00=40,753 
63 DNKLars BakBELLotto Soudal04:39:00  +  00:00:00=40,753 
64 FRAPierre RollandFRATeam Europcar04:39:00  +  00:00:00=40,753 
65 FRAMatthieu LadagnousFRAFDJ04:39:00  +  00:00:00=40,753 
88 CHESteve MorabitoFRAFDJ04:39:00  +  00:00:00=40,753 
66 UKRAndriy GrivkoKAZAstana Pro Team04:39:10  +  00:00:10=40,728 
67 NLDKoen De KortDEUTeam Giant Alpecin04:39:12  +  00:00:12=40,723 
68 NLDBram TankinkNLDTeam Lotto NL - Jumbo04:39:12  +  00:00:12=40,723 
69 ESPJonathan CastroviejoESPMovistar Team04:39:12  +  00:00:12=40,723 
70 LUXLaurent DidierUSATrek Factory Racing04:39:12  +  00:00:12=40,723 
71 ESPGorka Izaguirre InsaustiESPMovistar Team04:39:12  +  00:00:12=40,723 
72 FRADamien GaudinFRAAg2r La Mondiale04:39:12  +  00:00:12=40,723 
73 FRAYohann GèneFRATeam Europcar04:39:12  +  00:00:12=40,723 
74 FRAChristophe RiblonFRAAg2r La Mondiale04:39:12  +  00:00:12=40,723 
75 DNKMichael ValgrenRUSTinkoff Saxo04:39:12  +  00:00:12=40,723 
76 BELTim WellensBELLotto Soudal04:39:12  +  00:00:12=40,723 
77 ENGAdam YatesAUSOrica - GreenEDGE04:39:12  +  00:00:12=40,723 
78 FRARomain SicardFRATeam Europcar04:39:12  +  00:00:12=40,723 
79 NLDTom LeezerNLDTeam Lotto NL - Jumbo04:39:12  +  00:00:12=40,723 
80 AUSNathan HaasUSATeam Cannondale - Garmin04:39:17  +  00:00:17=40,711 
81 DEUMarcel SiebergBELLotto Soudal04:39:18  +  00:00:18=40,709 
82 USRRein TaaramäeKAZAstana Pro Team04:39:20  +  00:00:20=40,704 
83 NLDRoy CurversDEUTeam Giant Alpecin04:39:23  +  00:00:23=40,697 
84 ITADaniel OssUSABMC Racing Team04:39:23  +  00:00:23=40,697 
85 FRAFlorian SénéchalFRACofidis – Solutions Crédits04:39:23  +  00:00:23=40,697 
86 ITAAdriano MaloriESPMovistar Team04:39:43  +  00:00:43=40,648 
87 ITADaniele BennatiRUSTinkoff Saxo04:39:43  +  00:00:43=40,648 
89 ENGIan StannardGBRSky Procycling04:39:43  +  00:00:43=40,648 
90 POLMichal GolasBELEtixx - Quick Step04:39:43  +  00:00:43=40,648 
91 NLDLieuwe WestraKAZAstana Pro Team04:39:43  +  00:00:43=40,648 
92 NLDRamon SinkeldamDEUTeam Giant Alpecin04:39:56  +  00:00:56=40,617 
93 ENGSimon YatesAUSOrica - GreenEDGE04:39:56  +  00:00:56=40,617 
94 USRRamunas NavardauskasUSATeam Cannondale - Garmin04:40:05  +  00:01:05=40,595 
95 ITADamiano CarusoUSABMC Racing Team04:40:18  +  00:01:18=40,564 
96 FRANicolas RocheGBRSky Procycling04:40:18  +  00:01:18=40,564 
97 AUSMichael RogersRUSTinkoff Saxo04:40:18  +  00:01:18=40,564 
98 CHEDanilo WyssUSABMC Racing Team04:40:18  +  00:01:18=40,564 
99 USATyler FarrarZAFMTN - Qhubeka P/B Samsung04:40:24  +  00:01:24=40,549 
100 ITAManuel QuinziatoUSABMC Racing Team04:40:24  +  00:01:24=40,549 
101 NLDDylan Van BaarleUSATeam Cannondale - Garmin04:41:17  +  00:02:17=40,422 
102 WALLuke RoweGBRSky Procycling04:41:28  +  00:02:28=40,396 
103 DEUSimon GeschkeDEUTeam Giant Alpecin04:41:28  +  00:02:28=40,396 
104 NLDAlbert TimmerDEUTeam Giant Alpecin04:41:28  +  00:02:28=40,396 
105 POLMichal KwiatkowskiBELEtixx - Quick Step04:41:46  +  00:02:46=40,353 
106 BELJulien VermoteBELEtixx - Quick Step04:41:46  +  00:02:46=40,353 
107 AUSRohan DennisUSABMC Racing Team04:42:07  +  00:03:07=40,302 
108 ITAMatteo TrentinBELEtixx - Quick Step04:42:07  +  00:03:07=40,302 
109 FRAArmindo FonsecaFRABretagne - Séché Environnement04:47:29  +  00:08:29=39,550 
110 ITAFilippo PozzatoITALampre-Merida04:49:14  +  00:10:14=39,311 
111 FRASébastien ChavanelFRAFDJ04:49:15  +  00:10:15=39,309 
112 CZELeopold KönigGBRSky Procycling04:49:20  +  00:10:20=39,297 
113 NLDSteven KruijswijkNLDTeam Lotto NL - Jumbo04:51:23  +  00:12:23=39,021 
114 AUTMarco HallerRUSTeam Katusha04:51:23  +  00:12:23=39,021 
115 AUTGeorg PreidlerDEUTeam Giant Alpecin04:51:23  +  00:12:23=39,021 
116 NLDWout PoelsGBRSky Procycling04:51:23  +  00:12:23=39,021 
117 PRTTiago PintoRUSTeam Katusha04:51:23  +  00:12:23=39,021 
118 ITAIvan BassoRUSTinkoff Saxo04:51:23  +  00:12:23=39,021 
119 ITAJacopo GuarnieriRUSTeam Katusha04:51:23  +  00:12:23=39,021 
120 ITALuca PaoliniRUSTeam Katusha04:51:23  +  00:12:23=39,021 
121 ITAMatteo TosattoRUSTinkoff Saxo04:51:23  +  00:12:23=39,021 
122 FRABrice FeilluFRABretagne - Séché Environnement04:53:15  +  00:14:15=38,772 
123 BELThomas De GendtBELLotto Soudal04:53:15  +  00:14:15=38,772 
124 FRAAnthony DelaplaceFRABretagne - Séché Environnement04:53:15  +  00:14:15=38,772 
125 NLDStef ClementCHEIAM Cycling04:53:15  +  00:14:15=38,772 
126 FRAPierre-Luc PérichonFRABretagne - Séché Environnement04:53:15  +  00:14:15=38,772 
127 PRTNelson OliveiraITALampre-Merida04:53:15  +  00:14:15=38,772 
128 BELSerge PauwelsZAFMTN - Qhubeka P/B Samsung04:53:15  +  00:14:15=38,772 
129 NLDWilco KeldermanNLDTeam Lotto NL - Jumbo04:53:15  +  00:14:15=38,772 
130 LUXBen GastauerFRAAg2r La Mondiale04:53:15  +  00:14:15=38,772 
131 FRAAlexandre GeniezFRAFDJ04:53:15  +  00:14:15=38,772 
132 BELStijn DevolderUSATrek Factory Racing04:53:15  +  00:14:15=38,772 
133 BELJens DebusschereBELLotto Soudal04:53:15  +  00:14:15=38,772 
134 ESPHaimar ZubeldiaUSATrek Factory Racing04:53:15  +  00:14:15=38,772 
135 NZLGregory HendersonBELLotto Soudal04:53:15  +  00:14:15=38,772 
136 KAZDmitriy GruzdevKAZAstana Pro Team04:53:15  +  00:14:15=38,772 
137 ESPLuis Angel MateFRACofidis – Solutions Crédits04:53:15  +  00:14:15=38,772 
138 AUSAdam HansenBELLotto Soudal04:53:15  +  00:14:15=38,772 
139 AUSRichie PorteGBRSky Procycling04:53:15  +  00:14:15=38,772 
140 COLJulián ArredondoUSATrek Factory Racing04:53:15  +  00:14:15=38,772 
141 IMNPeter KennaughGBRSky Procycling04:53:15  +  00:14:15=38,772 
142 DEUPaul MartensNLDTeam Lotto NL - Jumbo04:53:15  +  00:14:15=38,772 
143 LUXBob JungelsUSATrek Factory Racing04:53:15  +  00:14:15=38,772 
144 FRAPerrig QuemeneurFRATeam Europcar04:53:15  +  00:14:15=38,772 
145 CZEJan BártaDEUBora-Argon 1804:53:15  +  00:14:15=38,772 
146 FRABryan NauleauFRATeam Europcar04:53:15  +  00:14:15=38,772 
147 FRAThomas VoecklerFRATeam Europcar04:53:15  +  00:14:15=38,772 
148 FRAPierrick FédrigoFRABretagne - Séché Environnement04:53:15  +  00:14:15=38,772 
149 DEUEmanuel BuchmannDEUBora-Argon 1804:53:15  +  00:14:15=38,772 
150 BELSam BennettDEUBora-Argon 1804:53:15  +  00:14:15=38,772 
151 ESPImanol ErvitiESPMovistar Team04:53:15  +  00:14:15=38,772 
152 ITAGiampaolo CarusoRUSTeam Katusha04:53:15  +  00:14:15=38,772 
153 CHEMarcel WyssCHEIAM Cycling04:53:15  +  00:14:15=38,772 
154 CHEMartin ElmigerCHEIAM Cycling04:53:15  +  00:14:15=38,772 
155 CHEReto HollensteinCHEIAM Cycling04:53:15  +  00:14:15=38,772 
156 HRVKristijan DurasekITALampre-Merida04:53:15  +  00:14:15=38,772 
157 POLBartosz HuzarskiDEUBora-Argon 1804:53:15  +  00:14:15=38,772 
158 ESPDaniel NavarroFRACofidis – Solutions Crédits04:53:15  +  00:14:15=38,772 
159 NLDLars BoomKAZAstana Pro Team04:53:15  +  00:14:15=38,772 
160 FRAJérémy RoyFRAFDJ04:53:15  +  00:14:15=38,772 
161 ZAFLouis MeintjesZAFMTN - Qhubeka P/B Samsung04:53:15  +  00:14:15=38,772 
162 BELJohan VansummerenFRAAg2r La Mondiale04:53:15  +  00:14:15=38,772 
163 FRANicolas EdetFRACofidis – Solutions Crédits04:53:15  +  00:14:15=38,772 
164 BELKenneth VanbilsenFRACofidis – Solutions Crédits04:53:15  +  00:14:15=38,772 
165 POLRafal MajkaRUSTinkoff Saxo04:53:15  +  00:14:15=38,772 
166 AUSLuke DurbridgeAUSOrica - GreenEDGE04:53:15  +  00:14:15=38,772 
167 FRAArnaud GérardFRABretagne - Séché Environnement04:53:15  +  00:14:15=38,772 
168 NLDPieter WeeningAUSOrica - GreenEDGE04:53:15  +  00:14:15=38,772 
169 CHEMichael AlbasiniAUSOrica - GreenEDGE04:53:15  +  00:14:15=38,772 
170 FRAJulien SimonFRACofidis – Solutions Crédits04:53:15  +  00:14:15=38,772 
171 CANSvein TuftAUSOrica - GreenEDGE04:53:15  +  00:14:15=38,772 
172 ESPRafael Valls FerriITALampre-Merida04:53:15  +  00:14:15=38,772 
173 ITAMatteo BonoITALampre-Merida04:53:15  +  00:14:15=38,772 
174 COLWinner AnaconaESPMovistar Team04:53:15  +  00:14:15=38,772 
175 ESPRubén PlazaITALampre-Merida04:53:15  +  00:14:15=38,772 
176 AUSMichael MatthewsAUSOrica - GreenEDGE04:53:15  +  00:14:15=38,772 
177 ESPJosé Herrada LópezESPMovistar Team04:53:15  +  00:14:15=38,772 
178 COLJosé SerpaITALampre-Merida04:53:15  +  00:14:15=38,772 
179 ERIMerhawi GhebremedhinZAFMTN - Qhubeka P/B Samsung04:53:15  +  00:14:15=38,772 
180 PRTJosé João PimentaDEUBora-Argon 1804:53:15  +  00:14:15=38,772 
181 NLDLaurens ten DamNLDTeam Lotto NL - Jumbo04:53:15  +  00:14:15=38,772 
182 FRAFrédéric BrunFRABretagne - Séché Environnement04:53:15  +  00:14:15=38,772 
183 FRAJérôme CoppelCHEIAM Cycling04:53:15  +  00:14:15=38,772 
184 FRAFlorian VachonFRABretagne - Séché Environnement04:53:15  +  00:14:15=38,772 
185 FRAAngelo TulikFRATeam Europcar04:53:15  +  00:14:15=38,772 
186 ENGStephen CummingsZAFMTN - Qhubeka P/B Samsung04:53:15  +  00:14:15=38,772 
187 ENGAlex DowsettESPMovistar Team04:53:15  +  00:14:15=38,772 
188 CANRyder HesjedalUSATeam Cannondale - Garmin04:53:15  +  00:14:15=38,772 
189 NLDSebastian LangeveldUSATeam Cannondale - Garmin04:53:15  +  00:14:15=38,772 

Withdrawls: 2
 
Rider
Team
Reason
162  NZLJack BauerUSATeam Cannondale - GarminDid not finish
171  FRANacer BouhanniFRACofidis – Solutions CréditsDid not finish

Todays birthdays.

1888  René Etien
1891  Arturo Ferrario
1913  Léon Theerlynck
1921  Roger Piel
1929  Antonio Ferraz
1930  Rizzardo Brenioli
1934  Orphée Meneghini
1943  Pietro Guerra
1961  Marc Somers
1964  Ettore Badolato
1967  Miguel Angel Martinez
1968  Davide Bramati
1981  Vasil Kiryienka